FW8055 Weather Reports


time (UTC)temp
F
wind
direction
speed
knots
gust
knots
rain 1hr
in
rain 24hr
in
rain mn
in
humidity
%
barometer
mb
20260505051545 57 0 0.0 2.6 0.00 0.00 0.00 79 1014.7
20260505041554 57 0 0.0 2.6 0.00 0.00 0.00 79 1014.4
20260505040051 57 14 0.0 1.7 0.00 0.00 0.00 79 1014.1
20260505034545 57 27 0.0 1.7 0.00 0.00 0.00 79 1013.8
20260505033046 58 31 0.0 2.6 0.00 0.00 0.00 78 1013.8
20260505031553 58 17 0.0 2.6 0.00 0.00 0.00 77 1013.5
20260505030043 59 32 0.9 2.6 0.00 0.00 0.00 75 1013.4
20260505024556 60 11 0.9 4.3 0.00 0.00 0.00 74 1013.2
20260505023043 61 49 0.0 4.3 0.00 0.00 0.00 73 1013.1
20260505021547 62 0 0.9 6.1 0.00 0.00 0.00 72 1013.0
20260505020045 63 24 0.9 3.5 0.00 0.00 0.00 71 1012.9
20260505014602 64 0 0.9 3.5 0.00 0.00 0.00 70 1013.1
20260505013043 64 0 0.0 7.8 0.00 0.00 0.00 69 1012.9
20260505011550 65 5 0.0 3.5 0.00 0.00 0.00 68 1012.9
20260505010045 66 13 0.9 7.0 0.00 0.00 0.00 67 1013.0
20260505004548 66 57 0.9 5.2 0.00 0.00 0.00 66 1013.0
20260505003045 67 19 0.9 4.3 0.00 0.00 0.00 67 1012.9
20260505001545 67 42 1.7 6.1 0.00 0.00 0.00 66 1012.8
20260505000054 67 348 0.9 4.3 0.00 0.00 0.00 66 1012.9
20260504234548 68 29 0.9 7.8 0.00 0.00 0.00 65 1013.0
20260504233102 67 25 0.9 4.3 0.00 0.00 0.00 64 1012.8
20260504231544 67 100 1.7 4.3 0.00 0.00 0.00 64 1013.1
20260504230046 68 12 1.7 7.0 0.00 0.00 0.00 64 1013.2
20260504224543 68 32 0.9 7.0 0.00 0.00 0.00 64 1013.4
20260504223056 67 45 0.0 3.5 0.00 0.00 0.00 66 1013.6
20260504221543 66 221 1.7 3.5 0.00 0.00 0.00 67 1013.8
20260504220044 66 76 0.9 4.3 0.00 0.00 0.00 68 1014.0
20260504214546 65 155 2.6 7.8 0.00 0.00 0.00 68 1014.1
20260504213100 64 0 0.9 5.2 0.00 0.00 0.00 69 1014.2
20260504211543 64 0 2.6 6.1 0.00 0.00 0.00 68 1014.3
20260504210042 63 0 0.0 5.2 0.00 0.00 0.00 70 1014.3
20260504204550 62 352 0.9 6.1 0.00 0.00 0.00 70 1014.5
20260504203104 62 62 0.9 3.5 0.00 0.00 0.00 72 1014.4
20260504201544 62 37 0.0 4.3 0.00 0.00 0.00 73 1014.5
20260504200044 61 45 0.0 4.3 0.00 0.00 0.00 74 1014.6
20260504194542 61 0 0.9 2.6 0.00 0.00 0.00 74 1014.6
20260504193048 61 0 0.0 2.6 0.00 0.00 0.00 75 1014.7
20260504191556 60 0 0.0 1.7 0.00 0.00 0.00 75 1014.7
20260504190049 60 85 0.0 1.7 0.00 0.00 0.00 75 1014.7
20260504184619 59 0 0.0 2.6 0.00 0.00 0.00 76 1014.9
20260504183042 59 119 0.0 2.6 0.00 0.00 0.00 77 1015.0
20260504181547 59 0 0.0 1.7 0.00 0.00 0.00 77 1015.0
20260504180047 59 0 0.0 2.6 0.00 0.00 0.00 77 1015.1
20260504174547 58 0 0.0 3.5 0.00 0.00 0.00 77 1015.0
20260504173043 58 14 0.0 3.5 0.00 0.00 0.00 77 1015.2
20260504171547 57 19 0.9 3.5 0.00 0.00 0.00 79 1015.2
20260504081544 57 78 0.9 3.5 0.00 0.00 0.00 79 1012.4